Location: Duvy
(49.2354°N, 2.8577°E)
Time: 14:32:58
(UTC+00:00)

Daily predictions for brighter satellites

Satellite Brightness Start Highest point End
(mag) Time Altitude Azimuth Time Altitude Azimuth Time Altitude Azimuth
Cosmos 1741 Rocket 4.2 20:28:08 10° NNW 20:33:29 81° WSW 20:38:48 10° SSE
CARTOSAT-1 3.6 20:30:36 10° SSE 20:34:54 74° ENE 20:39:13 10° N
Cosmos 1606 Rocket 4.3 20:31:13 10° N 20:35:16 37° ENE 20:39:18 10° SE
USA 245 3.2 20:33:01 10° SSE 20:36:45 55° ENE 20:39:46 10° N
Cosmos 2322 Rocket 4.4 20:33:47 10° N 20:37:22 17° NE 20:40:57 10° ENE
Ariane Rocket 3.2 20:33:53 10° S 20:38:59 77° WSW 20:44:07 10° NNW
PSLV R/B 4.3 20:37:11 10° N 20:41:21 71° WNW 20:45:30 10° SSW
CZ-4B R/B 1.2 20:42:38 10° N 20:45:31 75° WNW 20:48:24 10° SSW
USA 234 4.3 20:41:41 10° ENE 20:47:52 46° N 20:54:03 10° WNW
ATLAS 2AS CENTAUR R/B 4.3 20:42:39 10° WNW 20:48:23 28° WSW 20:53:49 10° SSW
ARIANE 5 R/B 3.8 20:44:39 10° SE 20:48:29 29° ENE 20:52:18 10° N
Terra 2.5 20:44:24 10° SE 20:48:51 41° ENE 20:53:19 10° N
SPOT 3 Rocket 3.6 20:45:22 10° SSE 20:50:35 89° ENE 20:55:51 10° NNW
SPOT 5 2.8 20:47:17 10° SSE 20:51:32 58° ENE 20:55:49 10° N
RESURS DK-1 3.5 20:48:13 10° NW 20:52:04 38° WSW 20:55:55 10° S
USA 276 2.1 20:49:47 10° W 20:52:49 77° N 20:55:51 10° E
FALCON 9 DEB 3.4 20:50:56 10° WNW 20:54:11 63° NNE 20:57:26 10° E
Cosmos 1455 4.0 20:51:12 10° NNW 20:54:32 29° W 20:57:53 10° SSW
Cosmos 1726 Rocket 4.0 20:53:02 10° N 20:57:14 47° ENE 21:01:15 11° SSE
IRAS Rocket 4.3 20:56:23 10° NNE 21:02:01 87° ESE 21:07:35 10° SSW
Cosmos 1331 Rocket 4.0 20:57:45 10° SSW 21:03:04 83° ESE 21:08:23 10° NNE
Cosmos 2074 Rocket 4.3 20:57:22 10° NNW 21:03:37 72° W 21:09:48 10° S
Cosmos 2082 Rocket 2.6 20:58:51 10° S 21:04:11 43° ESE 21:09:33 10° NE
Helios 1A Rocket 2.9 21:04:55 11° SSE 21:08:53 78° ENE 21:13:01 10° NNW
Spot 2 Rocket 3.5 21:04:12 10° SSE 21:09:18 87° ENE 21:14:28 10° NNW
Cosmos 1328 3.9 21:05:32 10° S 21:09:27 57° E 21:13:23 10° NNE
Cosmos 2084 Rocket 3.7 21:06:37 10° NW 21:10:26 53° SW 21:13:53 13° SSE
Cosmos 2360 Rocket 4.3 21:08:08 10° N 21:12:05 19° NE 21:16:01 10° E
Nadezhda 1 Rocket 3.9 21:08:46 10° S 21:14:50 81° E 21:20:55 10° N
X-37B 2.5 21:23:16 10° WSW 21:24:45 13° SSW 21:25:27 13° S
ERS-1 Rocket 3.1 21:22:07 11° S 21:26:55 77° WSW 21:31:59 10° NNW
Cosmos 1892 3.3 21:26:27 17° SSE 21:28:59 39° E 21:32:32 10° NNE
Cosmos 2228 4.3 21:30:51 10° NNW 21:34:44 36° W 21:38:38 10° SSW
Cosmos 1302 Rocket 3.9 21:29:58 10° SSW 21:35:09 78° ESE 21:40:22 10° NNE
Cosmos 192 4.4 21:33:31 10° SSW 21:38:24 86° WNW 21:43:21 10° NNE
Cosmos 1892 Rocket 3.5 21:38:01 11° S 21:42:12 86° E 21:46:35 10° N
Cosmos 968 Rocket 3.8 21:37:10 10° NNW 21:42:20 65° WSW 21:46:30 16° S
ASTRO F (AKARI) 4.4 21:40:19 20° SSE 21:42:37 81° ENE 21:46:07 10° NNW
Cosmos 1697 Rocket 4.0 21:39:49 10° NW 21:44:44 32° WSW 21:49:38 10° SSW
Cosmos 1980 Rocket 2.6 21:40:05 10° NW 21:45:41 60° WSW 21:50:07 16° S
SL-16 R/B 2.8 21:42:59 10° NNW 21:48:31 48° NE 21:52:57 15° SE
Cosmos 2058 Rocket 3.1 21:45:40 10° N 21:50:08 86° W 21:53:20 19° S
Cosmos 1408 2.3 21:48:45 18° S 21:51:14 87° E 21:54:42 10° N
Cosmos 1626 Rocket 4.2 21:50:06 21° SSE 21:52:30 38° E 21:56:33 10° NNE
SL-8 Rocket 4.0 21:47:01 10° N 21:53:17 80° E 21:58:01 18° SSE
CZ-2C R/B 3.9 21:49:28 10° N 21:54:01 71° WNW 21:58:26 10° SSW
Cosmos 2369 4.4 21:48:36 10° NW 21:54:04 47° WSW 21:58:31 15° S
ATLAS 5 CENTAUR R/B 1.4 21:50:51 12° SSW 21:54:05 49° SE 21:58:07 10° NE
USA 267 4.0 21:48:58 10° ENE 21:54:37 30° SE 21:59:31 13° S
SJ 16-02 2.5 21:56:39 10° N 22:00:42 33° ENE 22:03:35 17° ESE
SL-4 R/B 3.7 22:04:44 14° E 22:04:44 14° E 22:05:31 10° E
In-Cosmos 22 Rocket 4.1 21:59:05 17° S 22:03:24 70° E 22:08:47 10° NNE
COSMOS 2406 3.9 21:58:53 10° SW 22:04:33 57° NW 22:10:14 10° NNE
Cosmos 1825 2.1 22:08:00 26° S 22:09:56 65° E 22:13:40 10° NNE
Cosmos 1833 Rocket 4.4 22:05:02 10° WSW 22:10:07 34° NW 22:15:15 10° NNE
Cosmos 1867 4.4 22:06:54 10° NW 22:11:57 39° WSW 22:15:18 19° S
Cosmos 2366 rocket 4.0 22:07:18 10° N 22:13:41 87° W 22:18:15 20° S
Cosmos 1869 3.2 22:12:29 10° N 22:16:26 89° WSW 22:18:25 28° S
Cosmos 2218 Rocket 4.1 22:13:43 10° NNW 22:20:09 79° W 22:24:43 20° S
Cosmos 2322 Rocket 2.5 22:16:59 10° NNW 22:22:38 61° ENE 22:26:28 21° SE
GP-B 3.4 22:19:05 10° N 22:23:29 65° W 22:26:26 20° SSW
Meteor 1-27 4.3 22:18:15 10° NNW 22:23:48 73° W 22:27:27 22° S
ARIANE 5 R/B 3.8 22:21:46 16° SSW 22:24:51 35° W 22:28:55 10° NNW
Terra 3.4 22:22:57 11° SSW 22:26:44 28° W 22:30:50 10° NW
SAR-Lupe-4 3.5 22:24:08 10° NNE 22:27:44 84° WNW 22:29:35 27° SSW
USA 276 2.3 22:25:35 10° W 22:28:30 44° SSW 22:28:42 43° S
FALCON 9 DEB 3.9 22:27:22 10° W 22:30:17 31° SW 22:30:31 30° SSW
USA 234 3.6 22:23:54 10° ESE 22:30:23 67° NNE 22:36:53 10° WNW
Cosmos 2278 4.5 22:30:36 10° NW 22:35:57 42° WSW 22:39:18 21° SSW
BREEZE-M DEB (TANK) 3.4 22:33:09 10° W 22:36:10 86° S 22:47:03 10° ESE
Cosmos 1633 2.3 22:39:01 40° S 22:40:08 74° E 22:43:36 10° NNE
Cosmos 1992 Rocket 4.3 22:37:42 11° SW 22:42:45 65° WNW 22:47:59 10° NNE
Cosmos 2333 Rocket 3.3 22:38:01 10° NNW 22:43:27 40° NE 22:48:05 14° ESE
Okean 1-7 Rocket 4.1 22:40:57 19° SSW 22:44:01 57° WNW 22:48:29 10° N
Cosmos 1758 Rocket 3.6 22:42:24 32° S 22:44:20 67° E 22:48:44 10° NNE
ASTEX 1 4.3 22:42:31 10° N 22:47:18 46° WNW 22:51:10 15° SW
Cosmos 2082 Rocket 3.5 22:43:01 10° WSW 22:48:21 39° NW 22:53:41 10° NNE
Cosmos 1606 2.7 22:49:09 10° N 22:53:02 72° E 22:54:21 39° SSE
Cosmos-2242 2.9 22:49:08 10° N 22:53:24 83° W 22:55:10 35° S
Cosmos 1812 Rocket 3.7 22:49:42 10° NNW 22:54:08 66° W 22:56:09 31° S
Cosmos 2360 Rocket 2.3 22:51:26 10° NNW 22:57:08 72° ENE 23:00:32 25° SE
ADEOS Rocket 3.6 22:53:14 23° SSE 22:58:13 76° ENE 23:06:01 10° NNW
Cosmos 1340 Rocket 3.6 22:58:42 30° SE 22:59:41 35° E 23:03:20 10° NNE
Gbstr 26 Del rocket 3.4 22:59:00 34° S 23:00:14 43° SE 23:04:55 10° ENE
Cosmos 1821 Rocket 4.1 23:01:39 10° NNW 23:07:51 71° W 23:11:22 27° S
Cosmos 1602 Rocket 4.0 23:05:35 25° SW 23:07:56 54° WNW 23:12:12 10° N
BREEZE-M DEB (TANK) 4.2 23:12:25 21° ESE 23:12:25 21° ESE 23:14:52 10° E
SL-27 R/B 4.1 23:13:18 19° E 23:13:18 19° E 23:15:30 10° NE
Cosmos 44 3.5 23:14:09 36° SSE 23:15:20 44° ESE 23:19:36 10° NE
Cosmos 972 Rocket 4.2 23:10:22 10° NNW 23:15:36 73° ENE 23:18:41 28° SSE
Cosmos 1833 4.5 23:14:26 31° SSE 23:16:48 49° ESE 23:22:11 10° NE
Cosmos 2237 4.5 23:14:15 10° NW 23:19:51 56° WSW 23:22:29 30° S
ERS-2 2.8 23:19:01 10° NNE 23:22:24 38° E 23:22:56 35° ESE
Cosmos 2237 Rocket 4.4 23:18:41 10° N 23:22:57 21° NE 23:27:11 10° E
ALOS 2 2.7 23:21:37 37° S 23:23:16 69° WSW 23:27:40 10° NNW
Spot 4 4.4 23:21:49 29° SSW 23:23:53 46° W 23:28:32 10° NNW
CENTAUR R/B 3.8 23:22:31 19° SE 23:24:14 21° ESE 23:29:00 10° ENE
Cosmos 1605 Rocket 4.4 23:18:19 10° N 23:24:38 56° ENE 23:28:27 24° SE
NOSS 8 (A) 4.1 23:29:31 63° S 23:29:48 69° SE 23:32:45 10° NE
COSMOS 2428 3.6 23:24:25 10° NNW 23:29:54 45° NE 23:34:37 14° ESE
Cosmos 1777 Rocket 4.4 23:25:46 10° NNW 23:30:55 53° WSW 23:33:07 31° SSW
H-2A R/B 3.5 23:26:53 10° NNE 23:31:06 77° WNW 23:32:48 35° SSW
Cosmos 2058 3.0 23:29:58 37° SSW 23:31:33 74° WNW 23:35:44 10° N
Nadezhda 3 Rocket 4.1 23:28:02 24° SSW 23:31:50 68° WNW 23:38:01 10° N
SL-16 R/B 3.2 23:27:25 10° NW 23:32:26 33° WSW 23:34:48 24° SSW
Cosmos 2219 Rocket 2.5 23:27:15 10° NNW 23:32:55 63° ENE 23:36:40 21° SE
Cosmos 1953 Rocket 3.5 23:33:03 39° S 23:34:41 82° E 23:39:07 10° NNE
USA 267 3.2 23:31:37 10° ENE 23:38:12 85° SE 23:44:46 10° SW
ATLAS 5 CENTAUR R/B 3.4 23:35:24 10° W 23:38:50 28° NNW 23:42:44 10° NNE
SJ 16-02 2.5 23:35:18 10° NW 23:39:12 31° WSW 23:40:31 26° SW
SL-4 R/B 1.5 23:40:05 28° WSW 23:41:50 83° SSE 23:45:33 10° ENE
Cosmos 2322 3.9 23:36:24 10° NNW 23:42:05 67° ENE 23:45:45 22° SE
Cosmos 1825 Rocket 4.0 23:41:10 30° SW 23:43:03 54° WNW 23:47:20 10° N
Cosmos 1898 Rocket 4.3 23:38:26 10° NNW 23:43:26 45° ENE 23:47:02 18° SE
COSMOS 2455 4.3 23:44:56 10° NNW 23:50:28 36° NE 23:55:58 10° ESE
Cosmos 2221 2.5 23:46:19 10° N 23:50:43 83° W 23:52:14 40° S
PSLV R/B 3.8 23:49:03 10° NNE 23:53:48 67° ESE 23:55:36 37° S
